User: anonymous   Login
Location: Helsinki
(60.1699°N, 24.9384°E)
Time: 03:25:03
(UTC+03:00)
Language:

A-11 Canister half - Orbit

View from above orbital plane
View from above orbital plane
View from above satellite
View from above satellite

Ground track
Ground track

The orbit data is extracted from the following two-line orbital elements,

1 00051U 60009C   21127.56527334 -.00000070  00000-0  15795-3 0  9997
2 00051  47.2138  64.6990 0107130  45.5730 315.3766 12.18275035703604
Epoch (UTC): 07 May 2021 13:33:59
Eccentricity: 0.0107130
inclination: 47.2138°
perigee height: 1514 km
apogee height: 1685 km
right ascension of ascending node: 64.6990°
argument of perigee: 45.5730°
revolutions per day: 12.18275035
mean anomaly at epoch: 315.3766°
orbit number at epoch: 70360

The dashed part of the orbit path shows where the satellite is in the earth's shadow,  

DLR